Location: Friaudour
(46.0460°N, 1.2873°E)
Time: 07:20:27
(UTC+00:00)

Cosmos 2278 - Pass Details

Date: 14 July 2020
Orbit: 838 x 854 km, 71.1° (Epoch: 14 August)

Event Time Altitude Azimuth Distance (km) Brightness Sun altitude
Rises 01:59:33 0° 335° (NNW) 3,433 7.4 -17.2°
Reaches altitude 10° 02:02:03 10° 339° (NNW) 2,494 6.7 -17.0°
Maximum altitude 02:07:45 63° 61° (ENE) 949 4.2 -16.5°
Drops below altitude 10° 02:13:24 10° 142° (SE) 2,478 5.9 -16.0°
Sets 02:15:52 0° 146° (SE) 3,409 6.6 -15.7°
